[[{"header":{"parameterUnit":"m.s-1","parameterCategory":1,"la1":30.2991,"la2":30.254,"lo1":-89.0895,"lo2":-89.0444,"dx":0.0017,"dy":0.0017,"nx":28,"ny":28,"refTime":"2023-01-12T15:00:00:Z","depth":0,"parameterNumber":2,"parameterNumberName":"U-component_of_WINDS"},"data":[0,0,0,0,0,0,0,0,0,0,0,0,0,0,0,0,0,0,0,0,0,0,0,0,0,0,0,0,0,0,0,0,0,0,0,0,0,0,0,0,0,0,0,0,0,0,0,0,0,0,0,0,0,0,0,0,0,0,1.123,1.1231,0,1.1255,1.1255,1.1256,1.1262,1.1262,1.1262,1.1262,1.1287,1.1288,1.1288,0,0,0,0,0,0,0,0,0,0,0,0,0,1.119,1.1191,1.123,1.1231,1.1231,1.1255,1.1255,1.1256,1.1262,1.1262,1.1262,1.1262,1.1287,1.1288,1.1288,0,0,0,0,0,0,0,0,0,0,0,0,0,1.121,1.1191,1.123,1.1237,1.1238,1.1255,1.1255,1.1256,1.1262,1.1262,1.1262,1.1262,1.1286,1.1287,1.1289,1.13,0,0,1.1292,1.1293,0,0,0,0,0,0,0,0,1.1209,1.1212,1.1236,1.1237,1.1238,1.1255,1.125,1.1271,1.1262,1.1253,1.1262,1.1262,1.1277,1.1279,1.1284,1.1302,1.1303,1.1292,1.1293,1.1294,1.1294,0,0,0,0,0,0,0,1.1208,1.1211,1.124,1.1236,1.1237,1.1239,1.1242,1.1254,1.1266,1.1254,1.1254,1.1257,1.1277,1.1282,1.1284,1.1303,1.1292,1.1293,1.1294,1.1295,1.1334,1.1334,0,0,0,0,0,0,1.1205,1.121,1.1239,1.1241,1.1223,1.124,1.1243,1.125,1.1266,1.1268,1.1257,1.1258,1.128,1.1283,1.1285,1.1301,1.1294,1.1295,1.1295,1.1333,1.1334,1.1334,0,0,0,0,0,0,1.1204,1.1208,1.1238,1.1225,1.1229,1.1241,1.1249,1.1251,1.1256,1.1268,1.127,1.1261,1.128,1.1283,1.1297,1.1302,1.1295,1.1296,1.1333,1.1334,1.1334,1.1332,0,0,0,0,0,0,1.1203,1.1207,1.1211,1.1225,1.123,1.1249,1.1249,1.1251,1.1258,1.1258,1.1272,1.1274,1.128,1.1295,1.1298,1.1303,1.1297,1.1333,1.1333,1.1334,1.1331,1.1332,1.1333,0,0,0,0,0,1.1201,1.1209,1.1212,1.1215,1.1236,1.1249,1.1252,1.1259,1.1258,1.1263,1.1271,1.1274,1.1301,1.1296,1.13,1.1305,1.1332,1.1333,1.1334,1.1331,1.1332,1.1333,0,0,0,0,0,0,1.1195,1.1211,1.1214,1.1226,1.1237,1.1251,1.1256,1.126,1.127,1.127,1.1279,1.1282,1.1295,1.1302,1.1296,1.1319,1.1317,1.1318,1.1314,1.1314,1.1315,1.1313,1.1298,0,0,0,0,0,1.1195,1.1205,1.1219,1.1228,1.1234,1.1244,1.1251,1.1256,1.1266,1.1271,1.128,1.129,1.1302,1.1308,1.1319,1.1333,1.1336,1.1339,1.1339,1.134,1.1341,1.135,1.1351,1.1337,1.1337,1.1337,0,0,1.1195,1.1205,1.1211,1.1227,1.1236,1.1246,1.1248,1.1258,1.1266,1.1272,1.1286,1.1293,1.1306,1.1319,1.1326,1.1325,1.1346,1.1341,1.1341,1.1342,1.135,1.1352,1.1353,1.1337,1.1337,1.1337,0,0,1.12,1.1209,1.1219,1.1228,1.1241,1.1248,1.1251,1.1265,1.127,1.1284,1.1289,1.1299,1.1317,1.1327,1.1334,1.1345,1.1348,1.1349,1.1351,1.136,1.1361,1.1362,1.1367,1.1368,1.135,1.135,1.135,0,1.1199,1.1214,1.1223,1.1234,1.1242,1.1248,1.1259,1.1267,1.1283,1.1288,1.1288,1.1312,1.1321,1.1338,1.1341,1.1346,1.135,1.1346,1.136,1.1361,1.1363,1.1367,1.1369,1.135,1.135,1.135,1.135,0,1.1212,1.1223,1.1229,1.1245,1.1254,1.1264,1.1275,1.1283,1.1288,1.1296,1.1311,1.1322,1.1336,1.134,1.1345,1.1358,1.1358,1.1359,1.1357,1.1364,1.1368,1.137,1.135,1.135,1.135,1.135,0,0,1.1212,1.1234,1.1236,1.1244,1.1261,1.1269,1.1281,1.1295,1.1302,1.1313,1.1324,1.1341,1.1342,1.135,1.1356,1.1364,1.1373,1.1364,1.1365,1.1366,1.139,1.1389,1.139,1.1376,1.1376,1.1376,1.1389,0,1.122,1.124,1.1249,1.1266,1.1277,1.1285,1.1295,1.1307,1.1315,1.1326,1.1335,1.1347,1.1348,1.1353,1.1361,1.137,1.1378,1.137,1.1386,1.1386,1.1382,1.1393,1.1391,1.1402,1.1391,1.1391,1.1391,0,1.123,1.1243,1.1261,1.1277,1.1282,1.1291,1.1306,1.1316,1.133,1.1335,1.1345,1.1351,1.1365,1.1363,1.1382,1.1376,1.1383,1.1389,1.139,1.1391,1.1388,1.1394,1.1406,1.1407,1.1394,1.1394,1.1393,0,1.1229,1.125,1.1264,1.1271,1.129,1.1296,1.1305,1.1318,1.1327,1.134,1.1346,1.136,1.1368,1.1379,1.1389,1.1387,1.1407,1.1406,1.1413,1.1412,1.1416,1.1415,1.1428,1.1421,1.1421,1.1421,1.1421,0,1.1236,1.1247,1.1264,1.1272,1.1285,1.1296,1.1309,1.1318,1.133,1.1341,1.1349,1.1359,1.1372,1.1384,1.1392,1.1407,1.1411,1.1416,1.1418,1.1415,1.1414,1.1419,1.1419,1.1422,1.1421,1.1421,1.1421,0,1.1236,1.1248,1.1264,1.1282,1.1286,1.1295,1.131,1.1319,1.1329,1.1343,1.1346,1.1361,1.1376,1.1387,1.1406,1.1412,1.1428,1.143,1.1423,1.1424,1.143,1.1429,1.1447,1.145,1.144,1.144,1.1441,0,1.124,1.1249,1.1268,1.1276,1.1284,1.1297,1.1306,1.1318,1.1327,1.1345,1.1352,1.1367,1.138,1.1403,1.1416,1.1431,1.1434,1.1439,1.1436,1.1433,1.1434,1.1433,1.1434,1.1439,1.1439,1.1439,1.1439,0,1.1245,1.1251,1.1264,1.1279,1.129,1.1302,1.1315,1.1321,1.1336,1.1346,1.1361,1.1372,1.1392,1.1407,1.1424,1.1433,1.1439,1.144,1.1442,1.1439,1.1435,1.1438,1.1424,1.1439,1.1439,1.1439,1.1439,1.1439,1.1247,1.1256,1.1271,1.1285,1.1296,1.1309,1.1318,1.1329,1.1343,1.136,1.1367,1.1383,1.1398,1.1421,1.1431,1.1444,1.1444,1.1448,1.1448,1.1449,1.1449,1.1433,1.1447,1.1447,1.1447,1.1447,1.1447,0,1.1253,1.1264,1.1277,1.1295,1.1307,1.1311,1.1326,1.1336,1.135,1.1364,1.1377,1.1395,1.1411,1.1426,1.1442,1.145,1.1453,1.1454,1.1453,1.1455,1.1447,1.1444,1.1451,1.1451,1.1451,1.1451,1.1451,1.1451,1.1257,1.1272,1.128,1.1301,1.1312,1.1328,1.1336,1.1348,1.1359,1.138,1.1393,1.1403,1.1417,1.1435,1.145,1.1454,1.146,1.146,1.1465,1.1457,1.1456,1.1455,1.1452,1.1461,1.1461,1.1472,1.1472,1.1472]},{"header":{"parameterUnit":"m.s-1","parameterCategory":1,"la1":30.2991,"la2":30.254,"lo1":-89.0895,"lo2":-89.0444,"dx":0.0017,"dy":0.0017,"nx":28,"ny":28,"refTime":"2023-01-12T15:00:00:Z","depth":0,"parameterNumber":3,"parameterNumberName":"V-component_of_WINDS"},"data":[0,0,0,0,0,0,0,0,0,0,0,0,0,0,0,0,0,0,0,0,0,0,0,0,0,0,0,0,0,0,0,0,0,0,0,0,0,0,0,0,0,0,0,0,0,0,0,0,0,0,0,0,0,0,0,0,0,0,-7.7842,-7.7843,0,-7.7995,-7.7997,-7.7999,-7.7925,-7.7921,-7.7917,-7.7913,-7.8064,-7.8072,-7.8079,0,0,0,0,0,0,0,0,0,0,0,0,0,-7.7478,-7.7485,-7.7841,-7.7843,-7.7845,-7.7995,-7.7997,-7.7999,-7.7925,-7.7921,-7.7916,-7.7911,-7.8062,-7.8071,-7.808,0,0,0,0,0,0,0,0,0,0,0,0,0,-7.7634,-7.7487,-7.7841,-7.7827,-7.7827,-7.7995,-7.7997,-7.8,-7.7926,-7.792,-7.7915,-7.7909,-7.8059,-7.807,-7.8081,-7.827,0,0,-7.8117,-7.8122,0,0,0,0,0,0,0,0,-7.7625,-7.7647,-7.7827,-7.7828,-7.7829,-7.7935,-7.7924,-7.809,-7.7928,-7.7888,-7.7913,-7.7906,-7.8026,-7.804,-7.8081,-7.8277,-7.8284,-7.8118,-7.8125,-7.813,-7.8133,0,0,0,0,0,0,0,-7.7614,-7.764,-7.7902,-7.7829,-7.7831,-7.781,-7.7826,-7.7955,-7.7988,-7.7891,-7.7886,-7.7906,-7.8025,-7.807,-7.8084,-7.8286,-7.8117,-7.8128,-7.8135,-7.8139,-7.8644,-7.8651,0,0,0,0,0,0,-7.7605,-7.7632,-7.7897,-7.7907,-7.771,-7.7822,-7.7839,-7.7907,-7.7986,-7.7993,-7.7911,-7.7902,-7.8053,-7.8071,-7.8089,-7.8316,-7.813,-7.814,-7.8147,-7.8638,-7.8646,-7.8653,0,0,0,0,0,0,-7.7597,-7.7629,-7.7891,-7.7768,-7.78,-7.7834,-7.791,-7.7913,-7.7958,-7.8001,-7.8006,-7.7952,-7.8049,-7.8073,-7.8226,-7.832,-7.8146,-7.8156,-7.863,-7.864,-7.8649,-7.8771,0,0,0,0,0,0,-7.7587,-7.7627,-7.7701,-7.777,-7.7807,-7.8028,-7.7916,-7.792,-7.7979,-7.7969,-7.8041,-7.8047,-7.8047,-7.8209,-7.8238,-7.8333,-7.8165,-7.8622,-7.8635,-7.8646,-7.8758,-7.8783,-7.8805,0,0,0,0,0,-7.7575,-7.7727,-7.7705,-7.7737,-7.79,-7.8033,-7.8054,-7.8052,-7.7987,-7.806,-7.8088,-7.8045,-7.8305,-7.8226,-7.8257,-7.8357,-7.8616,-7.8631,-7.8645,-7.8748,-7.8778,-7.8804,0,0,0,0,0,0,-7.7666,-7.7736,-7.7712,-7.7892,-7.7958,-7.8021,-7.8113,-7.8085,-7.8168,-7.8155,-7.8147,-7.8164,-7.8324,-7.8355,-7.8266,-7.8543,-7.845,-7.8472,-7.8517,-7.8547,-7.8569,-7.8559,-7.8175,0,0,0,0,0,-7.7707,-7.7812,-7.7867,-7.802,-7.8055,-7.8079,-7.8137,-7.813,-7.8197,-7.8223,-7.8262,-7.8326,-7.8422,-7.8486,-7.8577,-7.8762,-7.8776,-7.8846,-7.8869,-7.8888,-7.8907,-7.9006,-7.9038,-7.8701,-7.8701,-7.87,0,0,-7.7793,-7.7845,-7.7911,-7.804,-7.809,-7.8197,-7.8102,-7.8219,-7.8298,-7.824,-7.8388,-7.8419,-7.849,-7.866,-7.8737,-7.8691,-7.9003,-7.8906,-7.8921,-7.893,-7.9025,-7.9057,-7.9085,-7.8711,-7.8709,-7.8707,0,0,-7.8005,-7.8055,-7.8189,-7.8241,-7.8319,-7.8333,-7.8365,-7.8433,-7.8452,-7.8601,-7.856,-7.8652,-7.8818,-7.887,-7.8919,-7.9151,-7.9114,-7.918,-7.9301,-7.9398,-7.9425,-7.9448,-7.9531,-7.9561,-7.9198,-7.9199,-7.9199,0,-7.8102,-7.8264,-7.826,-7.8382,-7.8439,-7.8394,-7.8528,-7.8578,-7.868,-7.872,-7.8668,-7.8876,-7.892,-7.9102,-7.9159,-7.92,-7.9235,-7.9172,-7.9422,-7.9445,-7.9467,-7.9546,-7.9577,-7.9206,-7.9205,-7.9205,-7.9204,0,-7.8379,-7.8491,-7.859,-7.8692,-7.8761,-7.8888,-7.8902,-7.8971,-7.8958,-7.8978,-7.9129,-7.9181,-7.9282,-7.9324,-7.9312,-7.9505,-7.9474,-7.9422,-7.9328,-7.9507,-7.9581,-7.9611,-7.9217,-7.9214,-7.9212,-7.921,0,0,-7.8653,-7.8753,-7.8789,-7.8835,-7.8917,-7.9003,-7.9127,-7.9227,-7.9287,-7.9358,-7.9462,-7.9603,-7.9556,-7.9611,-7.9604,-7.9689,-7.987,-7.9627,-7.9628,-7.967,-8.0085,-8.0124,-8.0159,-7.9845,-7.9851,-7.9856,-8.0079,0,-7.8871,-7.9092,-7.9092,-7.9294,-7.9398,-7.9356,-7.9463,-7.9524,-7.9546,-7.9635,-7.9657,-7.9758,-7.9688,-7.9721,-7.9804,-7.983,-7.9953,-7.9814,-7.994,-7.9945,-7.9925,-8.0198,-8.0239,-8.0448,-8.0108,-8.0113,-8.0116,0,-7.9156,-7.9239,-7.9452,-7.952,-7.9563,-7.966,-7.9752,-7.9838,-7.9906,-7.9915,-7.9977,-7.9957,-8.0081,-7.9983,-8.0153,-8.0059,-8.011,-8.0131,-8.0139,-8.0151,-8.0042,-8.0217,-8.0514,-8.0545,-8.0161,-8.0158,-8.0155,0,-7.9335,-7.95,-7.9649,-7.969,-7.9772,-7.9841,-7.9878,-7.994,-8.0,-8.0079,-8.0118,-8.0211,-8.0261,-8.0332,-8.0336,-8.0265,-8.0508,-8.0411,-8.0518,-8.0519,-8.0572,-8.0569,-8.0882,-8.0605,-8.0604,-8.0603,-8.0603,0,-7.9579,-7.9711,-7.9731,-7.9823,-7.9969,-7.9967,-8.0111,-8.0142,-8.0197,-8.0292,-8.026,-8.035,-8.035,-8.0441,-8.0445,-8.0585,-8.0608,-8.0618,-8.0617,-8.0622,-8.062,-8.0655,-8.0641,-8.0612,-8.061,-8.0608,-8.0607,0,-7.9805,-7.9824,-7.9983,-8.0048,-8.0067,-8.0172,-8.0227,-8.0313,-8.0331,-8.0452,-8.048,-8.0509,-8.0614,-8.0626,-8.0747,-8.075,-8.0919,-8.0903,-8.0898,-8.0895,-8.1003,-8.0993,-8.1349,-8.1396,-8.1088,-8.1091,-8.1093,0,-7.996,-8.0061,-8.0137,-8.02,-8.0241,-8.0342,-8.0404,-8.0405,-8.0471,-8.0555,-8.0631,-8.0734,-8.0816,-8.0986,-8.1016,-8.1109,-8.1095,-8.1213,-8.1108,-8.1109,-8.1097,-8.1091,-8.1101,-8.1234,-8.1237,-8.124,-8.1242,0,-8.0233,-8.0237,-8.0329,-8.0425,-8.05,-8.0575,-8.0645,-8.0697,-8.0707,-8.0782,-8.0891,-8.0955,-8.108,-8.1182,-8.1273,-8.1308,-8.1277,-8.1275,-8.1305,-8.131,-8.1303,-8.1309,-8.0954,-8.1267,-8.1264,-8.1262,-8.1261,-8.126,-8.0428,-8.0516,-8.0584,-8.0687,-8.074,-8.0806,-8.0891,-8.0921,-8.1012,-8.1116,-8.111,-8.123,-8.1293,-8.1413,-8.1455,-8.1547,-8.1507,-8.155,-8.1562,-8.1572,-8.1584,-8.1288,-8.1563,-8.1563,-8.1562,-8.1561,-8.1561,0,-8.07,-8.0742,-8.0837,-8.0937,-8.1018,-8.0983,-8.1058,-8.1128,-8.1234,-8.1297,-8.1379,-8.1503,-8.1602,-8.164,-8.1736,-8.1802,-8.179,-8.1827,-8.1823,-8.1831,-8.1614,-8.1578,-8.1835,-8.1835,-8.1835,-8.1835,-8.1835,-8.1835,-8.0851,-8.0999,-8.1011,-8.1183,-8.1223,-8.1342,-8.1388,-8.1448,-8.1498,-8.164,-8.1722,-8.1747,-8.1799,-8.1899,-8.1987,-8.1995,-8.2032,-8.2076,-8.2078,-8.1874,-8.1846,-8.182,-8.1787,-8.2084,-8.2084,-8.2288,-8.229,-8.2291]}]]